Gulf Shores, AL

4:03 AM CST on January 20, 2017 (GMT -0600)
Edwards

Weather History for KJKA - January, 2013

Change the Weather History Date:

Saturday, January 5, 2013

  Actual Average (KNPA) Record (KNPA)
Temperature  
Mean Temperature 47 °F -  
Max Temperature 53 °F 59 °F 64 °F (2017)
Min Temperature 41 °F 40 °F 36 °F (2015)
Degree Days  
Heating Degree Days 18    
Moisture  
Dew Point 32 °F    
Average Humidity 55    
Maximum Humidity 70    
Minimum Humidity 44    
Precipitation  
Precipitation 0.00 in - - ()
Sea Level Pressure  
Sea Level Pressure 30.31 in    
Wind  
Wind Speed 6 mph (NE)    
Max Wind Speed 12 mph    
Max Gust Speed 17 mph    
Visibility 10 miles    
Events Rain    
Averages and records for this station are not official NWS values.
T = Trace of Precipitation, MM = Missing Value Source: NWS Daily Summary

Daily Weather History Graph

Daily Weather History Graph

Search for Another Location

Airport or City:

Trip Planner

Search our weather history database for the weather conditions in past years. The results will help you decide how hot, cold, wet, or windy it might be!

Date:

Astronomy

Jan. 05, 2013 Rise Set
Actual Time 6:48 AM CST 5:04 PM CST
Civil Twilight 6:21 AM CST 5:30 PM CST
Nautical Twilight 5:52 AM CST 6:00 PM CST
Astronomical Twilight 5:22 AM CST 6:29 PM CST
Moon 12:08 AM CST (1/5) 11:41 AM CST (1/5)
Length of Visible Light 11h 09m
Length of Day
10h 16m
Last Quarter, 44% of the Moon is Illuminated
Jan 5
Last Quarter
Jan 11
New
Jan 18
First Quarter
Jan 26
Full
Feb 3
Last Quarter

Hourly Weather History & Observations

Time (CST) Temp. Windchill Dew Point Humidity Pressure Visibility Wind Dir Wind Speed Gust Speed Precip Events Conditions
12:15 AM 44.6 °F 41.4 °F 32.0 °F 61% 30.35 in 10.0 mi NNE 5.8 mph - N/A   Clear
12:35 AM 44.6 °F 42.2 °F 30.2 °F 57% 30.35 in 10.0 mi NNE 4.6 mph - N/A   Clear
12:55 AM 44.6 °F 40.7 °F 30.2 °F 57% 30.35 in 10.0 mi NNE 6.9 mph - N/A   Clear
1:15 AM 44.6 °F 40.7 °F 30.2 °F 57% 30.34 in 10.0 mi NNE 6.9 mph - N/A   Clear
1:35 AM 42.8 °F 39.3 °F 30.2 °F 61% 30.33 in 10.0 mi NNE 5.8 mph - N/A   Clear
1:55 AM 42.8 °F 39.3 °F 30.2 °F 61% 30.33 in 10.0 mi NNE 5.8 mph - N/A   Clear
2:15 AM 42.8 °F 41.1 °F 30.2 °F 61% 30.34 in 10.0 mi NNE 3.5 mph - N/A   Clear
2:35 AM 42.8 °F 40.1 °F 30.2 °F 61% 30.34 in 10.0 mi NNE 4.6 mph - N/A   Clear
2:55 AM 42.8 °F 41.1 °F 30.2 °F 61% 30.34 in 10.0 mi NNE 3.5 mph - N/A   Clear
3:15 AM 42.8 °F 41.1 °F 30.2 °F 61% 30.35 in 10.0 mi North 3.5 mph - N/A   Clear
3:35 AM 42.8 °F - 30.2 °F 61% 30.35 in 10.0 mi Calm Calm - N/A   Clear
3:55 AM 41.0 °F 37.1 °F 32.0 °F 70% 30.33 in 10.0 mi NNE 5.8 mph - N/A   Clear
4:15 AM 41.0 °F - 30.2 °F 65% 30.33 in 10.0 mi Calm Calm - N/A   Clear
4:35 AM 41.0 °F 36.4 °F 30.2 °F 65% 30.33 in 10.0 mi NE 6.9 mph - N/A   Clear
4:55 AM 42.8 °F 39.3 °F 30.2 °F 61% 30.32 in 10.0 mi NE 5.8 mph - N/A   Clear
5:15 AM 42.8 °F 40.1 °F 30.2 °F 61% 30.33 in 10.0 mi NE 4.6 mph - N/A   Clear
5:35 AM 42.8 °F 38.6 °F 30.2 °F 61% 30.32 in 10.0 mi NNE 6.9 mph - N/A   Clear
5:55 AM 42.8 °F 38.6 °F 30.2 °F 61% 30.33 in 10.0 mi NNE 6.9 mph - N/A   Clear
6:15 AM 42.8 °F 39.3 °F 30.2 °F 61% 30.34 in 10.0 mi NNE 5.8 mph - N/A   Clear
6:35 AM 42.8 °F 40.1 °F 30.2 °F 61% 30.34 in 10.0 mi NNE 4.6 mph - N/A   Clear
7:15 AM 42.8 °F 38.0 °F 30.2 °F 61% 30.34 in 10.0 mi ENE 8.1 mph - N/A   Clear
7:35 AM 44.6 °F 42.2 °F 30.2 °F 57% 30.36 in 10.0 mi NE 4.6 mph - N/A   Clear
7:55 AM 44.6 °F 42.2 °F 30.2 °F 57% 30.36 in 10.0 mi NE 4.6 mph - N/A   Clear
8:15 AM 44.6 °F 40.7 °F 30.2 °F 57% 30.35 in 10.0 mi ENE 6.9 mph - N/A   Clear
8:35 AM 46.4 °F 42.9 °F 30.2 °F 53% 30.36 in 10.0 mi NE 6.9 mph - N/A   Clear
8:55 AM 46.4 °F 42.9 °F 30.2 °F 53% 30.36 in 10.0 mi NE 6.9 mph - N/A   Clear
9:15 AM 48.2 °F - 30.2 °F 50% 30.36 in 10.0 mi NE 8.1 mph - N/A   Clear
9:55 AM 50.0 °F - 30.2 °F 47% 30.37 in 10.0 mi NE 5.8 mph - N/A   Clear
10:15 AM 50.0 °F - 32.0 °F 50% 30.37 in 10.0 mi NE 4.6 mph - N/A   Clear
11:15 AM 51.8 °F - 30.2 °F 44% 30.32 in 10.0 mi ENE 9.2 mph 17.3 mph N/A   Clear
11:35 AM 51.8 °F - 30.2 °F 44% 30.34 in 10.0 mi NE 8.1 mph - N/A   Clear
11:55 AM 53.6 °F - 32.0 °F 44% 30.31 in 10.0 mi ENE 11.5 mph - N/A   Clear
12:15 PM 53.6 °F - 32.0 °F 44% 30.30 in 10.0 mi ENE 11.5 mph - N/A   Clear
12:35 PM 53.6 °F - 32.0 °F 44% 30.28 in 10.0 mi ENE 11.5 mph - N/A   Clear
12:55 PM 53.6 °F - 32.0 °F 44% 30.28 in 10.0 mi ENE 10.4 mph - N/A   Clear
1:15 PM 53.6 °F - 32.0 °F 44% 30.28 in 10.0 mi East 8.1 mph - N/A   Clear
1:35 PM 53.6 °F - 33.8 °F 47% 30.29 in 10.0 mi NE 5.8 mph - N/A   Clear
1:55 PM 53.6 °F - 33.8 °F 47% 30.29 in 10.0 mi ENE 6.9 mph - N/A   Clear
2:15 PM 53.6 °F - 33.8 °F 47% 30.28 in 10.0 mi ENE 8.1 mph - N/A   Clear
2:35 PM 53.6 °F - 33.8 °F 47% 30.30 in 10.0 mi North 3.5 mph - N/A   Clear
2:55 PM 53.6 °F - 33.8 °F 47% 30.29 in 10.0 mi NNE 4.6 mph - N/A   Clear
3:15 PM 53.6 °F - 33.8 °F 47% 30.31 in 10.0 mi Calm Calm - N/A   Clear
3:35 PM 53.6 °F - 33.8 °F 47% 30.29 in 10.0 mi NE 4.6 mph - N/A   Clear
3:55 PM 51.8 °F - 33.8 °F 50% 30.28 in 10.0 mi NE 5.8 mph - N/A Rain Light Rain
4:15 PM 51.8 °F - 33.8 °F 50% 30.29 in 10.0 mi North 4.6 mph - N/A Rain Light Rain
4:55 PM 51.8 °F - 35.6 °F 54% 30.30 in 10.0 mi NNE 4.6 mph - N/A   Mostly Cloudy
5:15 PM 51.8 °F - 33.8 °F 50% 30.28 in 10.0 mi NE 6.9 mph - N/A   Overcast
5:35 PM 51.8 °F - 35.6 °F 54% 30.30 in 10.0 mi NNE 4.6 mph - N/A   Overcast
5:55 PM 51.8 °F - 35.6 °F 54% 30.29 in 10.0 mi NE 6.9 mph - N/A   Overcast
6:15 PM 51.8 °F - 33.8 °F 50% 30.29 in 10.0 mi ENE 8.1 mph - N/A   Overcast
8:55 PM 51.8 °F - 33.8 °F 50% 30.28 in 10.0 mi NE 5.8 mph - N/A   Overcast
9:15 PM 51.8 °F - 33.8 °F 50% 30.27 in 10.0 mi ENE 5.8 mph - N/A   Mostly Cloudy
9:35 PM 50.0 °F - 35.6 °F 58% 30.27 in 10.0 mi NE 3.5 mph - N/A   Scattered Clouds
9:55 PM 50.0 °F - 35.6 °F 58% 30.26 in 10.0 mi NE 3.5 mph - N/A   Scattered Clouds
10:15 PM 50.0 °F - 35.6 °F 58% 30.25 in 10.0 mi ENE 5.8 mph - N/A   Clear
10:35 PM 50.0 °F - 35.6 °F 58% 30.26 in 10.0 mi Calm Calm - N/A   Scattered Clouds
10:55 PM 50.0 °F - 35.6 °F 58% 30.25 in 10.0 mi ENE 3.5 mph - N/A   Mostly Cloudy
11:15 PM 50.0 °F - 35.6 °F 58% 30.27 in 10.0 mi Calm Calm - N/A   Scattered Clouds
11:35 PM 50.0 °F - 35.6 °F 58% 30.26 in 10.0 mi Calm Calm - N/A   Mostly Cloudy
11:55 PM 50.0 °F - 35.6 °F 58% 30.24 in 10.0 mi NNE 3.5 mph - N/A   Overcast